星链-35739(STARLINK-35739)

导读 | 豆包AI

STARLINK-35739是美国太空探索技术公司(SpaceX)星链星座的成员,于2025年12月11日发射升空。星链项目旨在构建全球卫星互联网星座,为全球偏远地区、海洋等网络覆盖薄弱区域提供高速宽带服务。该卫星加入星座后,将进一步拓展星链网络的覆盖范围,提升星座整体通信服务能力,推动全球互联网络基础设施建设。

基本信息
目录编号:
67053
目录名称:
STARLINK-35739
国际标识:
2025-294Z
轨道中心:
EARTH
卫星名称:
星链-35739
卫星全名:
星链-35739(STARLINK-35739)
卫星状态:
在轨 (已飞行93 天)
发射日期:
2025-12-11 UTC
国别 :
美国 (US)
星等 :
--
轨道信息
数据来源 国际轨道数据
星历时间: 2026-03-13T14:14:34+0800
23小时前
查看轨道信息
半长轴: 6861.13km
偏心率: 0.0003697
轨道倾角: 42.998°
近地点辐角 242.122°
升交点赤经 18.047°
平近点角 117.925°
近地点: 480.456km
远地点: 485.53km
周期: 94.266分钟
每日圈数: 15.275988
详细信息
固有亮度:
5
最大亮度:
2.5
卫星平台:
Starlink V1.0
覆盖范围:
全球
运营商:
太空探索技术公司
运营商所在国:
美国
制造商(研发单位):
太空探索技术公司
制造商所在国:
美国
使用方式:
暂无
卫星简介
Starlink 计划是 SpaceX 推出的全球卫星互联网项目,通过发射低轨道卫星,为全球尤其是偏远地区提供高速、低延迟的互联网服务。自 2019 年起,Starlink 已部署数千颗卫星,旨在缩小全球数字鸿沟,推动互联网普及。该项目还为军事、航空等行业提供通信支持,带来广泛经济效益。
2D轨道图
3D轨道图
轨道高度分析图
轨道倾角分析图
轨道综合分析图
查看轨道综合分析图